Time,TemperatureF,DewpointF,PressureIn,WindDirection,WindDirectionDegrees,WindSpeedMPH,WindSpeedGustMPH,Humidity,HourlyPrecipIn,Conditions,Clouds,dailyrainin,SoftwareType,DateUTC
2013-03-22 00:03:00,15.0,7.0,29.80,WNW,294,3.0,23.0,71,0.00,,,0.00,,2013-03-22 04:03:00,
2013-03-22 00:12:00,15.0,7.0,29.80,WNW,294,3.0,23.0,71,0.00,,,0.00,,2013-03-22 04:12:00,
2013-03-22 00:23:00,15.0,7.0,29.80,WNW,294,3.0,23.0,71,0.00,,,0.00,,2013-03-22 04:23:00,
2013-03-22 00:32:00,15.0,8.0,29.82,East,86,4.0,21.0,72,0.00,,,0.00,,2013-03-22 04:32:00,
2013-03-22 00:43:00,15.0,8.0,29.82,East,86,4.0,21.0,72,0.00,,,0.00,,2013-03-22 04:43:00,
2013-03-22 00:52:00,15.0,8.0,29.83,WNW,293,3.0,11.0,73,0.00,,,0.00,,2013-03-22 04:52:00,
2013-03-22 01:02:00,15.0,8.0,29.83,NW,310,9.0,18.0,73,0.00,,,0.00,,2013-03-22 05:02:00,
2013-03-22 01:12:00,15.0,8.0,29.83,NW,310,9.0,18.0,73,0.00,,,0.00,,2013-03-22 05:12:00,
2013-03-22 01:22:00,15.0,8.0,29.83,WNW,297,8.0,20.0,72,0.00,,,0.00,,2013-03-22 05:22:00,
2013-03-22 01:32:00,15.0,8.0,29.84,WNW,303,8.0,18.0,72,0.00,,,0.00,,2013-03-22 05:32:00,
2013-03-22 01:42:00,15.0,8.0,29.84,WNW,303,8.0,18.0,72,0.00,,,0.00,,2013-03-22 05:42:00,
2013-03-22 01:52:00,15.0,8.0,29.83,NW,319,7.0,17.0,72,0.00,,,0.00,,2013-03-22 05:52:00,
2013-03-22 02:02:00,14.0,7.0,29.83,NW,310,11.0,17.0,72,0.00,,,0.00,,2013-03-22 06:02:00,
2013-03-22 02:13:00,14.0,7.0,29.83,NW,310,11.0,17.0,72,0.00,,,0.00,,2013-03-22 06:13:00,
2013-03-22 02:22:00,14.0,6.0,29.83,NW,317,9.0,21.0,71,0.00,,,0.00,,2013-03-22 06:22:00,
2013-03-22 02:32:00,14.0,6.0,29.82,West,281,10.0,20.0,69,0.00,,,0.00,,2013-03-22 06:32:00,
2013-03-22 02:42:00,14.0,6.0,29.82,West,281,10.0,20.0,69,0.00,,,0.00,,2013-03-22 06:42:00,
2013-03-22 02:52:00,14.0,6.0,29.82,WNW,291,7.0,25.0,69,0.00,,,0.00,,2013-03-22 06:52:00,
2013-03-22 03:03:00,14.0,6.0,29.83,West,272,8.0,20.0,69,0.00,,,0.00,,2013-03-22 07:03:00,
2013-03-22 03:12:00,14.0,6.0,29.83,West,272,8.0,20.0,69,0.00,,,0.00,,2013-03-22 07:12:00,
2013-03-22 03:22:00,14.0,5.0,29.83,NW,310,6.0,14.0,68,0.00,,,0.00,,2013-03-22 07:22:00,
2013-03-22 03:32:00,14.0,5.0,29.83,NW,311,6.0,15.0,68,0.00,,,0.00,,2013-03-22 07:32:00,
2013-03-22 03:42:00,14.0,5.0,29.83,NW,311,6.0,15.0,68,0.00,,,0.00,,2013-03-22 07:42:00,
2013-03-22 03:52:00,14.0,5.0,29.82,NNW,332,5.0,20.0,68,0.00,,,0.00,,2013-03-22 07:52:00,
2013-03-22 04:03:00,14.0,5.0,29.81,West,281,3.0,13.0,67,0.00,,,0.00,,2013-03-22 08:03:00,
2013-03-22 04:13:00,14.0,5.0,29.81,West,281,3.0,13.0,67,0.00,,,0.00,,2013-03-22 08:13:00,
2013-03-22 04:22:00,14.0,5.0,29.81,NW,323,5.0,14.0,67,0.00,,,0.00,,2013-03-22 08:22:00,
2013-03-22 04:32:00,14.0,5.0,29.81,North,358,4.0,15.0,67,0.00,,,0.00,,2013-03-22 08:32:00,
2013-03-22 04:42:00,14.0,5.0,29.81,North,358,4.0,15.0,67,0.00,,,0.00,,2013-03-22 08:42:00,
2013-03-22 04:52:00,15.0,6.0,29.81,NW,310,8.0,16.0,66,0.00,,,0.00,,2013-03-22 08:52:00,
2013-03-22 05:02:00,15.0,6.0,29.81,NW,310,8.0,16.0,66,0.00,,,0.00,,2013-03-22 09:02:00,
2013-03-22 05:12:00,15.0,6.0,29.81,NW,310,8.0,16.0,66,0.00,,,0.00,,2013-03-22 09:12:00,
2013-03-22 05:22:00,15.0,6.0,29.81,WNW,288,6.0,18.0,66,0.00,,,0.00,,2013-03-22 09:22:00,
2013-03-22 05:33:00,15.0,6.0,29.81,NW,307,8.0,18.0,66,0.00,,,0.00,,2013-03-22 09:33:00,
2013-03-22 05:42:00,15.0,6.0,29.81,NW,307,8.0,18.0,66,0.00,,,0.00,,2013-03-22 09:42:00,
2013-03-22 05:53:00,15.0,6.0,29.81,NW,320,6.0,16.0,66,0.00,,,0.00,,2013-03-22 09:53:00,
2013-03-22 06:04:00,15.0,6.0,29.82,WNW,303,7.0,14.0,66,0.00,,,0.00,,2013-03-22 10:04:00,
2013-03-22 06:12:00,15.0,6.0,29.82,WNW,303,7.0,14.0,66,0.00,,,0.00,,2013-03-22 10:12:00,
2013-03-22 06:22:00,15.0,6.0,29.83,West,276,9.0,19.0,66,0.00,,,0.00,,2013-03-22 10:22:00,
2013-03-22 06:33:00,15.0,6.0,29.83,West,276,9.0,19.0,66,0.00,,,0.00,,2013-03-22 10:33:00,
2013-03-22 06:42:00,15.0,6.0,29.83,West,276,9.0,19.0,66,0.00,,,0.00,,2013-03-22 10:42:00,
2013-03-22 06:52:00,15.0,6.0,29.83,WNW,300,7.0,14.0,66,0.00,,,0.00,,2013-03-22 10:52:00,
2013-03-22 07:03:00,15.0,6.0,29.84,West,281,7.0,18.0,67,0.00,,,0.00,,2013-03-22 11:03:00,
2013-03-22 07:12:00,15.0,6.0,29.84,West,281,7.0,18.0,67,0.00,,,0.00,,2013-03-22 11:12:00,
2013-03-22 07:22:00,15.0,6.0,29.84,NW,311,9.0,17.0,66,0.00,,,0.00,,2013-03-22 11:22:00,
2013-03-22 07:33:00,15.0,6.0,29.85,West,281,9.0,17.0,67,0.00,,,0.00,,2013-03-22 11:33:00,
2013-03-22 07:42:00,15.0,6.0,29.85,West,281,9.0,17.0,67,0.00,,,0.00,,2013-03-22 11:42:00,
2013-03-22 07:52:00,15.0,6.0,29.86,West,269,8.0,16.0,67,0.00,,,0.00,,2013-03-22 11:52:00,
2013-03-22 08:02:00,14.0,6.0,29.86,West,272,7.0,13.0,70,0.00,,,0.00,,2013-03-22 12:02:00,
2013-03-22 08:12:00,14.0,6.0,29.86,WNW,287,4.0,17.0,70,0.00,,,0.00,,2013-03-22 12:12:00,
2013-03-22 08:22:00,14.0,6.0,29.86,WNW,287,4.0,17.0,70,0.00,,,0.00,,2013-03-22 12:22:00,
2013-03-22 08:32:00,14.0,6.0,29.86,WNW,287,4.0,17.0,70,0.00,,,0.00,,2013-03-22 12:32:00,
2013-03-22 08:42:00,14.0,6.0,29.86,WNW,287,4.0,17.0,70,0.00,,,0.00,,2013-03-22 12:42:00,
2013-03-22 08:52:00,14.0,6.0,29.88,WNW,284,5.0,16.0,70,0.00,,,0.00,,2013-03-22 12:52:00,
2013-03-22 09:02:00,14.0,6.0,29.89,West,274,11.0,20.0,70,0.00,,,0.00,,2013-03-22 13:02:00,
2013-03-22 09:12:00,14.0,6.0,29.89,West,274,11.0,20.0,70,0.00,,,0.00,,2013-03-22 13:12:00,
2013-03-22 09:22:00,14.0,6.0,29.89,West,274,11.0,20.0,70,0.00,,,0.00,,2013-03-22 13:22:00,
2013-03-22 09:32:00,15.0,7.0,29.90,WNW,290,7.0,19.0,69,0.00,,,0.00,,2013-03-22 13:32:00,
2013-03-22 09:42:00,15.0,7.0,29.90,WNW,290,7.0,19.0,69,0.00,,,0.00,,2013-03-22 13:42:00,
2013-03-22 09:53:00,16.0,7.0,29.90,WNW,284,6.0,16.0,68,0.00,,,0.00,,2013-03-22 13:53:00,
2013-03-22 10:03:00,16.0,7.0,29.90,WNW,284,6.0,16.0,68,0.00,,,0.00,,2013-03-22 14:03:00,
2013-03-22 10:12:00,16.0,7.0,29.90,WNW,284,6.0,16.0,68,0.00,,,0.00,,2013-03-22 14:12:00,
2013-03-22 10:22:00,18.0,8.0,29.91,West,280,9.0,17.0,65,0.00,,,0.00,,2013-03-22 14:22:00,
2013-03-22 10:32:00,18.0,8.0,29.90,WNW,289,7.0,21.0,65,0.00,,,0.00,,2013-03-22 14:32:00,
2013-03-22 10:43:00,18.0,8.0,29.90,WNW,289,7.0,21.0,65,0.00,,,0.00,,2013-03-22 14:43:00,
2013-03-22 10:52:00,19.0,9.0,29.90,NW,307,8.0,23.0,64,0.00,,,0.00,,2013-03-22 14:52:00,
2013-03-22 11:03:00,19.0,9.0,29.90,WNW,297,8.0,20.0,64,0.00,,,0.00,,2013-03-22 15:03:00,
2013-03-22 11:12:00,19.0,9.0,29.90,WNW,297,8.0,20.0,64,0.00,,,0.00,,2013-03-22 15:12:00,
2013-03-22 11:22:00,20.0,9.0,29.90,WNW,299,6.0,22.0,62,0.00,,,0.00,,2013-03-22 15:22:00,
2013-03-22 11:33:00,20.0,9.0,29.90,WNW,299,6.0,22.0,62,0.00,,,0.00,,2013-03-22 15:33:00,
2013-03-22 11:43:00,20.0,9.0,29.90,WNW,299,6.0,22.0,62,0.00,,,0.00,,2013-03-22 15:43:00,
2013-03-22 11:52:00,22.0,10.0,29.90,NW,308,5.0,15.0,58,0.00,,,0.00,,2013-03-22 15:52:00,
2013-03-22 12:03:00,23.0,10.0,29.90,NW,313,3.0,10.0,56,0.00,,,0.00,,2013-03-22 16:03:00,
2013-03-22 12:13:00,24.0,10.0,29.90,NNW,333,7.0,15.0,54,0.00,,,0.00,,2013-03-22 16:13:00,
2013-03-22 12:23:00,24.0,10.0,29.90,NNW,333,7.0,15.0,54,0.00,,,0.00,,2013-03-22 16:23:00,
2013-03-22 12:32:00,24.0,10.0,29.90,West,266,3.0,16.0,54,0.00,,,0.00,,2013-03-22 16:32:00,
2013-03-22 12:42:00,25.0,10.0,29.90,North,356,4.0,13.0,53,0.00,,,0.00,,2013-03-22 16:42:00,
2013-03-22 12:52:00,25.0,10.0,29.90,North,356,4.0,13.0,53,0.00,,,0.00,,2013-03-22 16:52:00,
2013-03-22 13:03:00,27.0,11.0,29.90,West,269,3.0,18.0,51,0.00,,,0.00,,2013-03-22 17:03:00,
2013-03-22 13:12:00,28.0,12.0,29.90,West,278,5.0,13.0,50,0.00,,,0.00,,2013-03-22 17:12:00,
2013-03-22 13:23:00,28.0,12.0,29.90,West,278,5.0,13.0,50,0.00,,,0.00,,2013-03-22 17:23:00,
2013-03-22 13:32:00,27.0,10.0,29.89,West,272,4.0,21.0,48,0.00,,,0.00,,2013-03-22 17:32:00,
2013-03-22 13:42:00,27.0,10.0,29.89,West,272,4.0,21.0,48,0.00,,,0.00,,2013-03-22 17:42:00,
2013-03-22 13:52:00,29.0,11.0,29.89,West,275,9.0,21.0,46,0.00,,,0.00,,2013-03-22 17:52:00,
2013-03-22 14:02:00,30.0,11.0,29.87,WNW,290,4.0,17.0,44,0.00,,,0.00,,2013-03-22 18:02:00,
2013-03-22 14:12:00,30.0,11.0,29.87,WNW,290,4.0,17.0,44,0.00,,,0.00,,2013-03-22 18:12:00,
2013-03-22 14:22:00,31.0,12.0,29.87,WNW,286,4.0,15.0,44,0.00,,,0.00,,2013-03-22 18:22:00,
2013-03-22 14:33:00,31.0,12.0,29.87,WNW,286,4.0,15.0,44,0.00,,,0.00,,2013-03-22 18:33:00,
2013-03-22 14:42:00,31.0,12.0,29.87,WNW,286,4.0,15.0,44,0.00,,,0.00,,2013-03-22 18:42:00,
2013-03-22 14:52:00,32.0,10.0,29.85,West,272,6.0,15.0,40,0.00,,,0.00,,2013-03-22 18:52:00,
2013-03-22 15:02:00,33.0,10.0,29.85,WSW,256,6.0,20.0,38,0.00,,,0.00,,2013-03-22 19:02:00,
2013-03-22 15:12:00,33.0,10.0,29.85,WSW,256,6.0,20.0,38,0.00,,,0.00,,2013-03-22 19:12:00,
2013-03-22 15:22:00,34.0,10.0,29.84,WNW,284,5.0,14.0,36,0.00,,,0.00,,2013-03-22 19:22:00,
2013-03-22 15:32:00,34.0,10.0,29.84,WNW,284,5.0,14.0,36,0.00,,,0.00,,2013-03-22 19:32:00,
2013-03-22 15:42:00,34.0,10.0,29.84,WNW,284,5.0,14.0,36,0.00,,,0.00,,2013-03-22 19:42:00,
2013-03-22 15:52:00,35.0,10.0,29.84,WNW,302,5.0,12.0,35,0.00,,,0.00,,2013-03-22 19:52:00,
2013-03-22 16:02:00,35.0,11.0,29.84,WNW,294,5.0,14.0,36,0.00,,,0.00,,2013-03-22 20:02:00,
2013-03-22 16:13:00,35.0,11.0,29.84,WNW,294,5.0,14.0,36,0.00,,,0.00,,2013-03-22 20:13:00,
2013-03-22 16:22:00,36.0,10.0,29.85,WNW,298,6.0,12.0,33,0.00,,,0.00,,2013-03-22 20:22:00,
2013-03-22 16:32:00,36.0,10.0,29.85,WNW,298,6.0,12.0,33,0.00,,,0.00,,2013-03-22 20:32:00,
2013-03-22 16:43:00,36.0,10.0,29.85,WNW,298,6.0,12.0,33,0.00,,,0.00,,2013-03-22 20:43:00,
2013-03-22 16:52:00,37.0,11.0,29.85,West,271,4.0,13.0,33,0.00,,,0.00,,2013-03-22 20:52:00,
2013-03-22 17:03:00,36.0,10.0,29.85,NW,318,6.0,16.0,33,0.00,,,0.00,,2013-03-22 21:03:00,
2013-03-22 17:12:00,37.0,11.0,29.85,WNW,289,5.0,15.0,33,0.00,,,0.00,,2013-03-22 21:12:00,
2013-03-22 17:22:00,37.0,11.0,29.85,WNW,289,5.0,15.0,33,0.00,,,0.00,,2013-03-22 21:22:00,
2013-03-22 17:33:00,37.0,11.0,29.85,West,280,7.0,17.0,33,0.00,,,0.00,,2013-03-22 21:33:00,
2013-03-22 17:43:00,37.0,11.0,29.85,West,280,7.0,17.0,33,0.00,,,0.00,,2013-03-22 21:43:00,
2013-03-22 17:53:00,38.0,11.0,29.85,West,268,4.0,13.0,33,0.00,,,0.00,,2013-03-22 21:53:00,
2013-03-22 18:03:00,38.0,11.0,29.85,West,268,4.0,13.0,33,0.00,,,0.00,,2013-03-22 22:03:00,
2013-03-22 18:12:00,38.0,11.0,29.85,West,268,4.0,13.0,33,0.00,,,0.00,,2013-03-22 22:12:00,
2013-03-22 18:23:00,38.0,12.0,29.86,WNW,291,5.0,12.0,34,0.00,,,0.00,,2013-03-22 22:23:00,
2013-03-22 18:32:00,38.0,11.0,29.86,West,276,5.0,14.0,33,0.00,,,0.00,,2013-03-22 22:32:00,
2013-03-22 18:43:00,38.0,11.0,29.86,West,276,5.0,14.0,33,0.00,,,0.00,,2013-03-22 22:43:00,
2013-03-22 18:52:00,37.0,11.0,29.86,West,275,6.0,14.0,34,0.00,,,0.00,,2013-03-22 22:52:00,
2013-03-22 19:02:00,36.0,11.0,29.86,West,280,8.0,13.0,35,0.00,,,0.00,,2013-03-22 23:02:00,
2013-03-22 19:12:00,36.0,11.0,29.86,West,280,8.0,13.0,35,0.00,,,0.00,,2013-03-22 23:12:00,
2013-03-22 19:22:00,36.0,12.0,29.86,WNW,302,6.0,13.0,36,0.00,,,0.00,,2013-03-22 23:22:00,
2013-03-22 19:32:00,36.0,12.0,29.86,WNW,302,6.0,13.0,36,0.00,,,0.00,,2013-03-22 23:32:00,
2013-03-22 19:42:00,36.0,12.0,29.86,WNW,302,6.0,13.0,36,0.00,,,0.00,,2013-03-22 23:42:00,
2013-03-22 19:52:00,35.0,10.0,29.87,West,273,7.0,15.0,35,0.00,,,0.00,,2013-03-22 23:52:00,
2013-03-22 20:02:00,35.0,11.0,29.87,WNW,301,6.0,15.0,36,0.00,,,0.00,,2013-03-23 00:02:00,
2013-03-22 20:12:00,35.0,11.0,29.87,WNW,301,6.0,15.0,36,0.00,,,0.00,,2013-03-23 00:12:00,
2013-03-22 20:23:00,35.0,11.0,29.87,WNW,301,6.0,15.0,36,0.00,,,0.00,,2013-03-23 00:23:00,
2013-03-22 20:33:00,34.0,11.0,29.88,WNW,294,2.0,15.0,37,0.00,,,0.00,,2013-03-23 00:33:00,
2013-03-22 20:42:00,34.0,11.0,29.88,WNW,294,2.0,15.0,37,0.00,,,0.00,,2013-03-23 00:42:00,
2013-03-22 20:52:00,34.0,11.0,29.88,WNW,294,2.0,15.0,37,0.00,,,0.00,,2013-03-23 00:52:00,
2013-03-22 21:03:00,34.0,11.0,29.88,West,265,1.0,13.0,38,0.00,,,0.00,,2013-03-23 01:03:00,
2013-03-22 21:12:00,34.0,11.0,29.88,West,265,1.0,13.0,38,0.00,,,0.00,,2013-03-23 01:12:00,
2013-03-22 21:22:00,34.0,11.0,29.89,West,265,5.0,11.0,37,0.00,,,0.00,,2013-03-23 01:22:00,
2013-03-22 21:32:00,34.0,11.0,29.89,West,265,5.0,11.0,37,0.00,,,0.00,,2013-03-23 01:32:00,
2013-03-22 21:42:00,34.0,11.0,29.89,West,265,5.0,11.0,37,0.00,,,0.00,,2013-03-23 01:42:00,
2013-03-22 21:52:00,33.0,10.0,29.90,WNW,296,2.0,11.0,38,0.00,,,0.00,,2013-03-23 01:52:00,
2013-03-22 22:02:00,33.0,10.0,29.90,North,0,0.0,7.0,38,0.00,,,0.00,,2013-03-23 02:02:00,
2013-03-22 22:12:00,33.0,10.0,29.90,North,0,0.0,7.0,38,0.00,,,0.00,,2013-03-23 02:12:00,
2013-03-22 22:22:00,33.0,11.0,29.90,NNW,338,4.0,14.0,39,0.00,,,0.00,,2013-03-23 02:22:00,
2013-03-22 22:32:00,33.0,11.0,29.91,West,272,3.0,10.0,39,0.00,,,0.00,,2013-03-23 02:32:00,
2013-03-22 22:42:00,33.0,11.0,29.91,West,272,3.0,10.0,39,0.00,,,0.00,,2013-03-23 02:42:00,
2013-03-22 22:52:00,32.0,10.0,29.91,NW,321,3.0,7.0,39,0.00,,,0.00,,2013-03-23 02:52:00,
2013-03-22 23:02:00,32.0,10.0,29.91,NW,305,3.0,6.0,39,0.00,,,0.00,,2013-03-23 03:02:00,
2013-03-22 23:12:00,32.0,10.0,29.91,NW,305,3.0,6.0,39,0.00,,,0.00,,2013-03-23 03:12:00,
2013-03-22 23:22:00,32.0,10.0,29.91,North,349,2.0,5.0,40,0.00,,,0.00,,2013-03-23 03:22:00,
2013-03-22 23:33:00,31.0,10.0,29.91,NW,317,1.0,8.0,41,0.00,,,0.00,,2013-03-23 03:33:00,
2013-03-22 23:43:00,31.0,10.0,29.91,NW,317,1.0,8.0,41,0.00,,,0.00,,2013-03-23 03:43:00,
2013-03-22 23:53:00,31.0,10.0,29.91,NW,317,1.0,8.0,41,0.00,,,0.00,,2013-03-23 03:53:00,